Regional Weather Roundup
Issued by NWS Wakefield, VA

Home | Current Version | Previous Version | Text Only | Print | Product List | Glossary Off
Versions: 1 2 3 4 5 6 7 8 9 10 11 12 13 14 15 16 17 18 19 20 21 22 23 24 25 26 27 28 29 30 31 32 33 34 35 36 37 38 39 40 41 42 43 44 45 46 47 48 49 50

000
ASUS41 KAKQ 241810
RWRAKQ

REGIONAL WEATHER ROUNDUP
NATIONAL WEATHER SERVICE WAKEFIELD VA
100 PM EST WED DEC 24 2014

Note: "fair" indicates few or no clouds below 12,000 feet with no
significant weather and/or obstructions to visibility. * = Denotes
station may not report precipitation (e.g., rain,snow,etc.),
thunder or fog.

VAZ042-051-052>054-056-241900-
NORTHERN VIRGINIA

CITY           SKY/WX    TMP DP  RH WIND       PRES   REMARKS
WASH NATIONAL  LGT RAIN  52  48  87 CALM      29.70F FOG
DULLES         LGT RAIN  47  47 100 S3        29.70F VSB 1/2
FORT BELVOIR   DRIZZLE   50  48  93 W1        29.72F FOG
QUANTICO       LGT RAIN  45  44  97 S5        29.73F VSB 3/4
FREDERICKSBRG* DRIZZLE   49  49 100 CALM      29.72F
STAFFORD*      DRIZZLE   47  50 100 CALM      29.76F
WARRENTON      CLOUDY    49  49 100 CALM      29.71F
CULPEPER*      CLOUDY    48  48 100 SW3       29.71F
MANASSAS*      CLOUDY    48  46  93 CALM      29.71F FOG
LEESBURG*      LGT RAIN  48  48 100 CALM      29.71F
WINCHESTER     LGT RAIN  46  43  87 CALM      29.69F
FRONT ROYAL*   CLOUDY    43  43 100 CALM      29.68F
LURAY*         DRIZZLE   45  45 100 CALM      29.68F
$$

VAZ048-049-060>072-079>083-241900-
CENTRAL AND SOUTH CENTRAL VIRGINIA

CITY           SKY/WX    TMP DP  RH WIND       PRES   REMARKS
RICHMOND       LGT RAIN  54  52  93 W7        29.72F VSB 1/2
CHESTERFIELD*  CLOUDY    54  43  66 W5        29.73F
PETERSBURG*    CLOUDY    60  59  97 W7        29.72F
HANOVER        LGT RAIN  50  49  96 CALM      29.74F FOG
TAPPAHANNOCK*  LGT RAIN  64  63  94 S12G20    29.71F
QUINTON*       CLOUDY    62  62  99 SW3       29.71F
CHARLOTTSVILLE LGT RAIN  47  46  97 SW6       29.71F FOG
GORDONSVILLE*  CLOUDY    48  47  97 SW5       29.70F
ORANGE*        DRIZZLE   48  46  93 CALM      29.71F
LOUISA*        DRIZZLE   48  48 100 CALM      29.69F
BUMPASS*       CLOUDY    46  46  99 CALM      29.71F
FARMVILLE*     LGT RAIN  50  50 100 CALM      29.75S
CREWE*         CLOUDY    50  49  95 CALM      29.73F
FORT PICKETT*  CLOUDY    52  51  97 SW3       29.74F
CHASE CITY*    CLOUDY    52  52 100 CALM      29.72F
CLARKSVILLE*   CLOUDY    50  50 100 CALM      29.72F
SOUTH HILL*    CLOUDY    57  56  99 SW5       29.79F
LAWRENCEVILLE* CLOUDY    63  63 100 S5        29.73F
EMPORIA*       RAIN      63  63 100 S3        29.75F
$$

VAZ088>098-241900-
SOUTHEAST VIRGINIA

CITY           SKY/WX    TMP DP  RH WIND       PRES   REMARKS
NORFOLK        RAIN      68  66  93 S13       29.71F FOG
VIRGINIA BEACH LGT RAIN  69  66  90 S15G26    29.72F FOG
NORFOLK NAVAL  HVY RAIN  71  66  84 S13G20    29.74F VSB 3/4
WEST POINT*    CLOUDY    68  66  93 S12       29.72F
SALUDA*        CLOUDY    65  64  97 S6G17     29.72F
NEWPORT NEWS   HVY RAIN  70  66  87 S7        29.72F FOG
LANGLEY AFB    LGT RAIN  68  68 100 S7        29.72F FOG
FORT EUSTIS    LGT RAIN  66  66 100 S5        29.71F FOG
WILLIAMSBURG*  CLOUDY    70  68  94 S6        29.73F
HR EXEC AP*    CLOUDY    68  66  94 SW6       29.75F
FRANKLIN*      CLOUDY    66 N/A N/A S5        29.73F
WAKEFIELD      LGT RAIN  67  65  93 SW12G17   29.72F FOG
$$

VAZ020-022-025-037-045-241900-
WEST CENTRAL AND SOUTHWEST VIRGINIA

CITY           SKY/WX    TMP DP  RH WIND       PRES   REMARKS
STAUNTON*      CLOUDY    49  47  93 CALM      29.71F
WAYNESBORO*    CLOUDY    50  49  96 CALM      29.68F
HOT SPRINGS VA DRIZZLE   54  53  98 SW13      29.70F
LYNCHBURG      LGT RAIN  48  48 100 CALM      29.74F FOG
DANVILLE       LGT RAIN  49  46  90 N3        29.73F
SOUTH BOSTON*  CLOUDY    48  47  95 CALM      29.73F
MARTINSVILLE   DRIZZLE   48  48 100 NE3       29.73F
ROANOKE        CLOUDY    47  45  93 CALM      29.74F
BLACKSBURG     CLOUDY    47  47  99 E3        29.73F FOG
DUBLIN*        CLOUDY    50  50 100 E5        29.70F
MARION*        CLOUDY    52  51  95 E12       29.67F FOG
HILLSVILLE*    CLOUDY    51  51 100 SE5       29.70F FOG
RICHLANDS*     CLOUDY    56  51  81 E6        29.59F
WISE*          CLOUDY    57  55  94 SE5       29.59S
ABINGDON*      CLOUDY    58  56  93 E12       29.60F
$$

MDZ021>025-VAZ099-100-241900-
SOUTHERN MARYLAND AND THE DELMARVA PENINSULA

CITY           SKY/WX    TMP DP  RH WIND       PRES   REMARKS
PATUXENT RIVER LGT RAIN  52  51  97 SE8       29.69F VSB 1/2
BAY BRIDGE APT LGT RAIN  50  50 100 CALM      29.72F VSB 1/2
LEONARDTOWN    CLOUDY    61  59  94 SE9       29.71F
DOVER          CLOUDY    55  55 100 E5        29.70F FOG
GEORGETOWN     CLOUDY    68  64  87 S12       29.73F
EASTON         RAIN      63  63 100 S10       29.74F VSB 1
CAMBRIDGE      CLOUDY    61  59  94 S9        29.72F
SALISBURY      LGT RAIN  70  65  84 S14G26    29.73F
OCEAN CITY     LGT RAIN  56  55  97 SW8       29.76F VSB 1/4
WALLOPS ISLAND LGT RAIN  56  56 100 SW17      29.76F VSB 1/2
ACCOMACK*      LGT RAIN  63  61  94 S15G26    29.75F
$$

NCZ012>017-030>032-241900-
NORTH CENTRAL AND EASTERN NORTH CAROLINA

CITY           SKY/WX    TMP DP  RH WIND       PRES   REMARKS
ROANOKE RAPIDS RAIN      63  63 100 SW5       29.74F
RALEIGH        HVY RAIN  61  59  93 SW5       29.75F FOG
ELIZABETH CITY RAIN      72  67  84 S18G28    29.77F
AHOSKIE*       RAIN      67  66  97 S7        29.74F
EDENTON*       LGT RAIN  66  65  96 S21G30    29.77F
CURRITUCK*     DRIZZLE   69  66  92 S8G18     29.77F
KILL DEVIL HLS LGT RAIN  64  64  99 S10G22    29.79F
MANTEO         DRIZZLE   61  59  94 S21G26    29.81F
CAPE HATTERAS  LGT RAIN  63  63 100 S14       29.84F FOG
TARBORO*       LGT RAIN  69  67  93 S8        29.75F
GOLDSBORO      LGT RAIN  70  70 100 S10G16    29.72F
WASHINGTON     CLOUDY    69  67  94 S14G22    29.77F
GREENVILLE     LGT RAIN  70  70 100 S14       29.78F
NEW BERN       HVY RAIN  72  68  87 SW14G23   29.81R VSB 3/4
WILMINGTON     LGT RAIN  71  69  93 SW13      29.79S
$$

VAZ048-241900-
ELSEWHERE

CITY           SKY/WX    TMP DP  RH WIND       PRES   REMARKS
HARRISBURG PA  LGT RAIN  46  46 100 CALM      29.70F VSB 1
BALTIMORE      LGT RAIN  50  48  93 E5        29.69F VSB 3/4
ANNAPOLIS      LGT RAIN  50  49  96 SE3       29.70F VSB 1/4
ANDREWS AFB    LGT RAIN  50  50 100 E2        29.68F FOG
PHILADELPHIA   LGT RAIN  53  51  93 NE6       29.74F FOG
HENDERSON NC   DRIZZLE   56  55  95 S5        29.73F
GREENSBORO     LGT RAIN  48  47  96 E7        29.69F FOG
ROCKY MOUNT    LGT RAIN  65  64  97 W5        29.74F FOG
$$

VAZ100-241900-
MARINE

STATION/POSITION TIME  TEMP    WIND        PRES    WAVE   SWELL
                       AIR SEA DIR/SP/G            HT/PER HT/PER
                 (UTC) (F)     (DEG/KT/KT) (MB)    (FT/S) (FT/S)
CAPE MAY NJ      1800   56 46  160/ 13/ 18 1006.9F
LEWES DE         1800   64 43  190/  5/  9 1006.7F
15NM E FENWICK I 1800   55 47              1007.4F   4/ 8
OCEAN-CITY-INLET 1800   51 44  210/ 14/ 16 1007.4F
WACHAPREAGUE VA  1800   56 45  210/  9/ 11 1007.7F
THOMAS POINT MD  1800   47 42   10/  7/  8 1006.7F
GOOSES REEF MD   1800   47     VRB 10/ 12  1004.5F   1/ 2
COVE POINT MD    1800   50     180/ 13/ 14 1005.4F
SOLOMONS ISLAND  1800      43                N/A
BISHOPS HEAD MD  1800   49 43  160/ 12/ 12 1005.8F
PINEY POINT MD   1800          150/ 11/ 12   N/A
POTOMAC MD       1800   51 43  170/ 12/ 14 1005.0F   1/ 2
CAMBRIDGE MD     1800   60 40  170/  6/ 13 1006.2F
LEWISETTA VA     1800   63 42  190/ 12/ 15 1004.9F
RAPPAHANNOCK LGT 1800          160/ 24/ 25 1007.0F
STINGRAY PT      1800   52 44  180/ 16/ 17 1007.1F   1/ 2
YORK RVR RNG VA  1800   60     190/ 21/ 23 1006.0F
YORKTOWN VA      1800   67 45  200/ 10/ 14 1006.2F
JAMESTOWN VA     1800   65 46  210/ 10/ 14   N/A     0
DOMINION TERM VA 1800   59     180/  8/  9 1006.7F
KIPTOPEKE VA     1800      49  170/ 17/ 20   N/A
CHES BAY BRIDGE  1800   63 46  150/ 20/ 23 1006.4F
CAPE HENRY VA    1800   68     150/ 15/ 19 1005.7F
CHESAPEAKE LGHT  1700   57     180/ 27/ 28 1008.7F
WILLOUBY STN VA  1800   67     200/ 12/ 13 1007.3F
S CRANEY ISL VA  1800          200/  7/  8 1006.5F
CAPE HENRY BUOY  1800      48                N/A     4/ 8
1ST LANDING BUOY 1800   63 47  170/ 17/ 21 1006.5F   2/ 3
CAPE CHARLES BUO 1800      47                N/A     3/ 4   2/ 9
64NM E OF VA BCH 1800   60 53  180/ 16/ 17 1009.5F   5/ 9   2/ 9
DUCK PIER NC     1800   68 49  180/ 22/ 27 1007.3F
44100 DUCK FRF   1800      50                N/A     4/ 8   2/11
44056 DUCK FRF   1800      49                N/A     3/ 7   2/11
OREGON INLET NC  1800   60 51  170/ 14/ 18 1009.8F
HATTERAS NC      1800   66 55  170/  9/ 13 1010.8F
DIAMOND SHLS NC  1800   75                 1010.4F   8/ 7
CAPE LOOKOUT NC  1700   65     170/ 17/ 17 1010.5F
$$


USA.gov is the U.S. government's official web portal to all federal, state and local government web resources and services.